Wetbulb
45.40 46.31 46.47 45.67 45.11 45.48 43.43 44.43 39.64 42.79 42.54 45.62 47.08 48.43 50.36 51.28 51.87 51.67 52.20 54.32 54.82 55.11 54.13 53.11 52.46 51.40 50.68 49.42 49.06 48.84 47.40 44.99 45.58 45.58 44.64 44.07 43.63 43.34 42.82 41.80 41.10 41.17 40.50 40.57
43.94 46.18 45.96 43.38 45.15 45.58 44.88 44.63 44.36 44.33 43.79 48.69 50.24 50.21 49.67 49.86 50.41 51.22 50.72 52.53 54.42 55.02 54.62 52.94 52.40 51.61 50.37 48.84 48.58 48.83 46.01 44.80 45.49 44.49 43.89 42.86 42.16 42.55 42.05 41.65 41.14 40.42 39.49 39.82
38.99 42.46 41.73 36.03 42.73 44.29 45.28 46.09 45.37 41.43 46.41 49.05 48.40 48.88 49.73 50.21 50.23 51.21 51.21 51.86 53.17 53.96 54.14 53.18 52.24 51.51 49.26 48.67 49.12 47.25 45.35 45.18 44.73 44.13 42.34 41.75 41.92 41.30 40.14 39.96 40.02 39.77 39.11 39.17
39.71 36.46 31.53 42.38 47.52 46.72 45.12 45.92 47.22 46.51 47.54 48.43 49.05 50.14 50.23 51.16 50.74 51.11 52.40 52.16 53.12 53.48 53.56 53.16 52.72 51.45 49.56 49.06 47.75 45.41 44.22 43.69 42.93 42.79 41.10 40.46 40.20 39.85 39.90 39.79 39.46 38.51 38.16 38.47
37.53 36.76 40.14 42.39 44.95 43.47 42.72 42.80 47.29 46.37 47.01 48.28 49.07 49.38 49.60 52.15 52.57 52.07 52.01 52.24 52.62 53.54 53.64 53.11 52.41 51.37 48.25 47.09 45.64 44.33 42.12 42.06 41.66 40.42 39.59 39.51 38.90 38.73 39.27 38.99 38.46 38.20 38.30 37.18
38.76 36.27 32.94 43.77 46.02 48.18 47.46 38.60 47.12 47.49 47.35 47.34 48.11 44.38 46.98 51.69 52.48 52.37 52.32 52.74 52.58 53.29 53.28 52.56 51.75 49.48 46.85 44.09 42.05 41.08 40.86 39.91 39.74 39.52 38.67 38.24 38.45 38.51 38.59 38.07 38.20 38.10 36.96 36.37
39.05 37.63 40.78 46.60 47.24 48.21 38.21 41.22 48.67 49.01 48.64 48.66 47.10 49.03 51.69 53.07 51.91 51.99 52.54 52.76 53.64 52.35 47.51 47.64 44.72 44.08 42.38 40.96 39.62 39.13 39.58 39.52 39.25 39.32 38.97 38.64 38.09 37.63 37.13 36.63 36.83 34.66 33.03 33.41
41.84 35.33 32.76 47.65 46.51 42.55 48.97 51.84 50.40 50.22 50.48 50.27 50.99 51.17 51.33 51.56 51.89 51.07 50.56 51.81 48.82 41.27 40.54 41.73 42.51 41.39 38.75 37.66 38.87 39.25 39.40 38.78 38.57 38.49 38.46 38.34 37.29 36.94 36.82 35.98 34.41 33.85 32.57 32.17
42.88 42.47 49.85 49.75 48.86 51.16 51.91 50.56 50.17 50.13 50.27 50.78 50.15 50.10 50.92 51.06 51.18 49.22 48.87 44.53 42.63 40.67 39.28 38.46 38.25 38.46 37.03 37.69 38.73 39.18 37.90 36.99 36.99 37.66 37.66 37.33 34.93 33.73 33.82 34.68 33.51 32.78 31.69 30.72
45.60 46.20 47.29 48.99 50.06 50.85 50.41 50.76 51.08 51.53 51.55 51.63 50.37 50.57 50.41 50.85 48.58 44.92 43.38 41.42 40.46 38.52 36.62 36.25 37.20 37.22 37.57 37.71 37.94 37.29 35.96 35.82 36.04 35.66 35.54 35.11 35.02 35.07 33.16 32.10 33.02 32.10 31.07 30.53
44.98 47.39 48.43 48.91 50.27 50.92 50.88 51.55 51.65 51.95 50.92 48.45 48.62 48.93 49.23 43.12 41.48 40.15 39.58 38.45 37.57 36.67 36.05 35.99 37.05 37.20 37.75 37.47 37.07 35.35 34.97 35.04 35.19 33.71 34.19 34.50 35.36 34.27 32.03 32.56 32.15 30.88 31.34 32.32
44.44 48.29 48.23 48.48 50.44 50.85 49.96 48.18 48.15 47.92 45.36 44.91 44.85 42.29 40.94 39.68 38.89 37.54 36.52 36.78 36.20 36.40 36.17 36.29 36.89 37.07 37.70 37.88 37.08 35.29 33.88 33.78 33.94 33.81 33.82 34.04 34.29 33.66 34.16 33.24 33.23 33.70 33.05 30.31
47.73 50.09 49.83 49.60 48.08 47.17 45.47 45.53 45.37 44.39 43.46 40.81 40.25 39.27 38.83 37.22 37.01 36.21 36.68 37.06 36.69 36.47 37.34 37.71 37.01 36.37 37.32 37.57 36.56 34.30 33.04 33.29 33.18 32.40 33.68 33.09 32.00 31.72 32.04 33.61 33.42 33.47 33.05 32.52
49.46 49.21 47.01 46.84 43.44 45.40 43.28 41.78 41.07 39.89 39.71 39.01 38.81 38.98 37.74 37.02 37.47 37.91 37.91 38.62 38.67 37.92 37.30 36.94 36.19 36.18 37.66 38.26 37.02 34.28 34.01 32.65 33.08 33.58 33.92 32.87 32.11 31.80 30.87 29.48 29.99 31.71 32.70 32.05
46.94 46.46 44.95 44.87 43.74 41.70 40.92 39.70 38.12 37.54 38.48 38.58 39.88 39.57 39.38 38.42 38.05 38.15 38.64 38.41 37.74 37.23 36.87 36.98 36.38 36.53 38.64 38.64 37.65 34.72 34.46 34.52 34.15 33.98 32.89 33.22 32.91 31.86 30.80 30.24 30.44 31.21 31.73 30.74
45.21 44.94 43.90 41.39 39.07 38.63 38.63 38.82 37.88 37.85 38.74 38.89 37.64 37.24 37.25 38.06 37.83 37.66 37.75 36.82 33.85 33.64 34.89 30.51 31.33 34.77 37.47 38.03 37.32 36.80 36.08 33.86 32.97 34.60 34.22 33.27 32.42 31.98 31.76 31.24 30.54 30.61 31.14 31.09
40.66 38.67 38.82 37.32 37.59 38.63 38.60 39.00 37.87 37.23 36.43 34.84 33.76 32.75 33.61 33.10 34.22 34.32 34.87 34.66 32.74 31.87 32.53 32.92 33.02 36.93 35.97 37.76 37.38 36.55 36.24 36.17 33.38 34.16 33.44 33.03 32.85 32.71 32.21 31.98 30.77 30.53 30.95 32.46
44.09 42.32 40.58 39.57 38.73 37.93 36.95 35.70 34.87 34.39 32.69 33.28 30.89 31.07 30.57 30.18 29.73 31.14 32.03 32.64 31.72 31.87 33.18 34.85 33.75 34.39 35.65 36.73 36.04 34.83 34.66 34.86 35.03 34.44 34.00 33.76 33.69 32.90 32.02 31.19 30.82 30.94 30.86 30.49
41.48 39.90 39.62 38.54 37.68 35.92 34.76 33.98 32.94 32.03 31.13 30.73 30.93 29.98 30.31 30.24 30.06 29.84 30.30 30.68 31.36 31.98 31.42 32.02 30.34 31.34 32.66 33.35 32.42 33.30 33.55 33.37 33.48 33.74 33.95 33.58 32.72 32.05 31.02 30.52 30.25 31.03 31.62 30.13
38.40 37.74 36.60 35.23 35.17 33.36 32.24 32.38 33.87 33.72 31.91 30.21 30.43 29.54 28.55 27.59 27.68 25.97 27.82 28.69 31.16 29.88 30.06 29.58 29.61 29.88 29.97 30.99 30.03 29.98 29.90 30.08 29.94 31.72 32.74 32.75 32.27 31.30 28.97 27.34 29.17 30.70 31.32 31.43
35.46 34.15 32.64 31.36 30.68 31.40 31.17 31.06 30.39 29.24 29.87 27.02 26.30 24.77 24.57 27.72 27.61 25.55 27.39 27.72 29.59 28.44 27.89 27.14 27.71 25.42 25.46 25.09 25.80 28.64 29.41 29.77 29.97 30.03 30.79 30.79 31.88 30.93 26.99 26.68 28.18 30.41 31.02 31.26
34.87 32.80 31.76 31.42 30.43 29.29 30.01 30.47 30.03 28.06 27.77 25.31 23.67 22.99 23.87 26.89 26.33 27.11 25.87 26.16 27.12 23.80 24.37 26.29 24.47 19.85 21.11 21.62 27.01 26.73 26.54 26.29 27.10 28.36 29.55 29.54 29.73 28.25 26.41 26.47 26.24 26.35 27.16 27.53
34.53 33.14 31.67 31.32 30.68 29.96 29.41 29.20 27.66 26.95 24.41 24.49 23.73 25.10 25.50 25.77 26.76 24.39 23.36 25.88 25.27 22.46 23.56 23.95 19.70 17.46 18.51 22.75 22.36 21.68 21.85 21.42 20.60 21.62 22.08 22.87 23.46 23.12 23.08 22.72 22.43 22.82 22.65 22.58
33.59 31.96 30.54 30.89 30.99 30.39 28.66 28.07 29.14 28.48 25.06 26.93 25.28 23.45 24.89 24.40 25.12 26.51 25.51 23.04 20.88 20.85 21.18 22.49 19.45 16.87 18.09 19.61 19.07 18.40 18.39 18.56 16.36 17.32 17.27 18.27 18.78 18.32 18.71 18.83 17.84 17.74 17.79 18.26
31.01 30.93 30.89 30.55 30.44 28.85 28.37 27.71 28.54 27.67 26.30 26.17 25.89 25.63 25.41 25.93 23.12 22.95 23.27 22.55 21.47 20.48 20.50 20.52 19.52 16.04 17.71 17.20 16.79 16.33 15.75 16.18 14.57 14.06 13.79 14.39 14.22 14.44 14.99 14.76 13.70 13.79 14.34 14.88
32.63 31.33 28.66 28.05 27.35 27.09 25.84 25.77 24.66 25.25 23.98 23.96 23.69 24.77 25.15 24.73 23.45 22.04 21.74 20.38 20.31 19.02 19.00 18.71 18.08 17.63 16.64 15.39 15.15 14.44 14.30 13.55 12.15 11.98 11.62 11.68 11.02 11.81 11.27 10.65 10.78 11.08 11.46 12.22
28.67 29.69 28.83 27.14 25.65 24.88 23.62 23.68 22.84 21.55 23.46 21.01 19.98 22.43 23.53 22.80 21.90 20.22 18.34 18.93 18.39 17.64 17.10 16.82 16.42 15.54 14.58 13.55 13.13 12.42 12.09 11.34 9.89 10.58 9.43 8.41 8.47 8.21 7.84 8.77 9.22 10.38 10.96 11.61
MSLP
1007.07 1006.39 1006.35 1006.21 1005.71 1005.68 1005.86 1006.28 1006.71 1006.50 1005.69 1004.88 1004.54 1004.84 1004.98 1005.50 1006.28 1006.99 1007.26 1007.71 1008.57 1009.66 1010.95 1012.36 1013.81 1015.03 1016.00 1016.93 1017.90 1018.61 1019.39 1019.48 1019.61 1019.85 1020.31 1020.84 1021.29 1021.61 1021.93 1022.29 1022.53 1022.50 1022.39 1022.38
1008.45 1007.82 1007.25 1006.81 1006.35 1005.88 1005.74 1005.58 1005.57 1005.38 1004.91 1004.71 1004.73 1005.28 1005.68 1006.13 1006.51 1007.08 1007.63 1007.81 1008.40 1009.38 1010.51 1011.86 1013.15 1014.34 1015.41 1016.46 1017.52 1018.45 1018.98 1019.24 1019.48 1019.93 1020.39 1020.93 1021.35 1021.75 1021.78 1021.89 1022.00 1021.83 1021.86 1022.03
1009.73 1009.46 1008.81 1007.91 1006.62 1006.05 1005.72 1005.42 1005.27 1005.02 1004.98 1004.86 1005.01 1005.50 1006.20 1006.69 1006.98 1007.41 1008.06 1008.45 1008.86 1009.55 1010.44 1011.47 1012.56 1013.67 1014.84 1016.02 1017.09 1017.95 1018.70 1019.29 1019.71 1020.15 1020.78 1021.21 1021.23 1021.49 1021.49 1021.31 1021.36 1021.39 1021.49 1021.64
1011.04 1011.07 1009.49 1007.07 1006.05 1005.76 1005.56 1005.38 1005.09 1004.92 1004.94 1005.04 1005.67 1006.34 1006.93 1007.26 1007.56 1007.89 1008.24 1008.97 1009.37 1009.86 1010.49 1011.32 1012.25 1013.31 1014.45 1015.63 1016.83 1017.81 1018.73 1019.49 1020.06 1020.63 1020.75 1021.07 1021.17 1021.22 1021.40 1021.44 1021.24 1021.17 1021.17 1021.15
1011.69 1010.96 1009.11 1007.52 1006.57 1006.48 1006.18 1006.11 1006.06 1005.94 1006.18 1006.40 1007.11 1007.34 1007.56 1007.35 1008.18 1008.65 1008.97 1009.33 1009.64 1009.98 1010.49 1011.32 1012.25 1013.14 1014.42 1015.71 1016.86 1017.92 1019.05 1020.03 1020.66 1020.99 1021.37 1021.26 1021.10 1021.04 1021.14 1021.19 1021.19 1021.09 1020.99 1021.13
1011.94 1011.29 1009.73 1007.83 1007.55 1007.35 1006.99 1006.95 1007.28 1007.32 1007.55 1007.72 1007.98 1008.47 1008.87 1009.23 1009.32 1009.36 1009.42 1009.59 1009.85 1010.21 1010.77 1011.55 1012.38 1013.48 1014.73 1016.14 1017.49 1018.69 1019.88 1020.86 1021.39 1021.80 1021.61 1021.52 1021.05 1020.73 1020.78 1020.89 1020.83 1020.65 1020.60 1021.06
1011.54 1011.15 1009.61 1007.83 1007.71 1007.75 1007.82 1008.59 1008.33 1008.50 1008.50 1008.58 1008.91 1009.31 1009.57 1009.82 1010.03 1010.17 1010.05 1010.22 1010.45 1011.13 1012.51 1013.04 1014.03 1014.81 1016.08 1017.61 1018.79 1020.14 1020.45 1021.65 1021.62 1021.56 1021.20 1021.34 1021.34 1021.32 1020.95 1020.81 1020.65 1020.84 1020.89 1021.05
1010.85 1010.81 1009.60 1008.11 1008.09 1008.20 1008.49 1008.56 1008.67 1008.88 1009.09 1009.35 1009.60 1009.89 1009.99 1010.01 1010.03 1010.71 1011.17 1011.21 1012.20 1013.77 1015.04 1015.78 1016.26 1016.98 1018.35 1019.43 1020.47 1021.50 1021.94 1021.65 1021.39 1021.39 1021.25 1021.26 1021.34 1021.35 1021.02 1020.78 1020.69 1020.71 1020.77 1020.99
1009.44 1009.01 1008.47 1008.05 1008.15 1008.18 1008.56 1008.97 1009.28 1009.49 1009.61 1009.75 1010.04 1010.28 1010.50 1010.67 1010.92 1011.76 1012.38 1013.52 1014.66 1015.88 1017.10 1018.05 1018.53 1018.99 1019.95 1021.05 1021.61 1021.59 1021.93 1021.86 1021.73 1021.44 1021.25 1021.30 1021.24 1021.24 1021.09 1020.82 1020.52 1020.38 1020.49 1020.74
1008.83 1007.88 1007.83 1007.82 1007.99 1008.28 1008.87 1009.35 1009.65 1010.05 1010.32 1010.58 1011.13 1011.49 1011.58 1011.71 1012.35 1013.39 1014.30 1015.49 1016.81 1017.82 1018.84 1019.66 1020.05 1020.38 1020.65 1021.20 1021.41 1021.63 1021.67 1021.65 1021.59 1021.56 1021.21 1021.14 1021.12 1020.90 1020.79 1020.85 1020.77 1020.47 1020.35 1020.48
1008.36 1008.22 1007.97 1008.08 1008.60 1009.19 1009.94 1010.43 1010.79 1011.28 1011.64 1012.27 1012.51 1012.67 1012.93 1013.92 1014.82 1015.89 1016.89 1018.00 1018.84 1019.51 1020.06 1020.41 1020.51 1020.58 1020.82 1021.12 1021.33 1021.62 1021.72 1021.59 1021.42 1021.37 1021.20 1020.92 1020.59 1020.32 1020.39 1020.55 1020.77 1020.70 1020.63 1020.52
1008.67 1008.94 1009.17 1009.51 1010.14 1010.86 1011.18 1012.01 1012.56 1012.83 1013.41 1014.01 1014.19 1014.76 1015.46 1016.25 1017.30 1018.14 1018.87 1019.51 1019.82 1020.06 1020.24 1020.41 1020.50 1020.48 1020.67 1020.98 1021.14 1021.35 1021.44 1021.43 1021.30 1021.01 1020.83 1020.67 1020.26 1020.02 1020.02 1019.94 1020.06 1020.11 1019.94 1020.08
1009.40 1009.92 1010.28 1010.88 1011.83 1012.57 1013.26 1013.93 1014.42 1014.86 1015.50 1016.25 1016.85 1017.25 1017.57 1018.13 1018.75 1019.17 1019.69 1019.95 1020.13 1020.28 1020.24 1020.30 1020.47 1020.63 1020.69 1020.80 1020.91 1021.15 1021.17 1021.03 1020.95 1020.81 1020.55 1020.26 1020.08 1019.97 1019.82 1019.45 1019.34 1019.26 1019.20 1019.25
1010.68 1010.89 1011.34 1012.08 1013.29 1014.22 1015.23 1016.08 1016.71 1017.23 1017.58 1017.92 1018.26 1018.69 1019.04 1019.27 1019.61 1019.77 1019.92 1019.99 1020.05 1020.21 1020.34 1020.40 1020.47 1020.36 1020.30 1020.32 1020.31 1020.42 1020.58 1020.52 1020.38 1020.23 1020.04 1019.91 1019.93 1019.89 1019.88 1019.79 1019.24 1018.78 1018.47 1018.40
1011.64 1012.19 1012.81 1013.79 1014.82 1015.92 1016.81 1017.37 1017.73 1018.19 1018.51 1018.79 1019.06 1019.16 1019.21 1019.31 1019.49 1019.64 1019.81 1020.05 1020.31 1020.50 1020.48 1020.40 1020.36 1020.25 1020.00 1019.75 1019.57 1019.61 1019.66 1019.63 1019.38 1019.24 1019.32 1019.42 1019.40 1019.33 1019.13 1018.94 1018.67 1018.15 1017.79 1017.56
1012.71 1013.44 1014.32 1015.31 1016.43 1017.18 1017.67 1018.02 1018.32 1018.79 1018.99 1019.48 1020.05 1020.26 1020.21 1020.15 1020.16 1020.17 1020.25 1020.78 1020.99 1021.15 1021.14 1021.09 1020.85 1020.51 1020.07 1019.58 1019.23 1018.93 1018.72 1018.57 1018.44 1018.43 1018.36 1018.33 1018.37 1018.35 1018.24 1018.09 1017.80 1017.46 1017.15 1016.87
1013.79 1014.80 1015.83 1016.77 1017.40 1017.76 1018.12 1018.70 1019.45 1019.91 1020.29 1020.78 1021.34 1021.65 1021.63 1021.54 1021.34 1021.46 1021.60 1021.70 1021.76 1021.69 1021.47 1021.21 1020.80 1020.45 1020.17 1019.63 1019.13 1018.60 1018.13 1017.77 1017.61 1017.61 1017.51 1017.50 1017.45 1017.42 1017.37 1017.23 1016.93 1016.62 1016.34 1016.10
1014.31 1015.54 1016.76 1017.39 1017.90 1018.70 1019.43 1020.08 1020.60 1021.06 1021.68 1022.15 1022.47 1022.59 1022.62 1022.58 1022.65 1022.58 1022.41 1022.16 1022.01 1021.75 1021.45 1021.11 1021.24 1020.86 1020.38 1019.88 1019.42 1018.95 1018.46 1017.86 1017.36 1017.09 1016.85 1016.78 1016.62 1016.54 1016.40 1016.21 1015.98 1015.77 1015.54 1015.36
1016.04 1016.79 1017.63 1018.49 1019.18 1019.93 1020.65 1021.27 1021.70 1022.19 1022.65 1022.93 1023.07 1023.30 1023.41 1023.43 1023.34 1023.21 1023.00 1022.59 1022.15 1021.87 1022.09 1021.78 1021.61 1021.19 1020.60 1020.08 1019.64 1019.08 1018.58 1017.81 1017.18 1016.55 1016.07 1015.77 1015.59 1015.51 1015.44 1015.44 1015.25 1015.01 1014.75 1014.57
1017.36 1018.17 1019.08 1019.89 1020.51 1021.07 1021.74 1022.21 1022.18 1022.64 1023.32 1023.57 1023.69 1023.80 1023.83 1023.80 1023.70 1023.43 1023.09 1022.79 1022.43 1022.89 1022.54 1022.18 1021.85 1021.32 1020.76 1020.09 1019.71 1019.19 1018.52 1017.86 1017.27 1016.57 1015.45 1014.57 1014.16 1014.37 1014.59 1014.77 1014.70 1014.24 1013.90 1013.80
1018.71 1019.68 1020.46 1021.13 1021.77 1022.31 1022.69 1023.04 1023.27 1023.49 1023.76 1024.02 1024.16 1024.32 1024.18 1023.77 1023.56 1023.35 1023.13 1022.97 1023.09 1023.09 1023.04 1022.69 1022.26 1022.31 1021.81 1021.13 1020.23 1019.02 1018.13 1017.39 1016.80 1016.14 1015.44 1014.92 1014.16 1013.91 1014.26 1014.56 1014.53 1014.21 1013.77 1013.54
1019.80 1020.63 1021.33 1021.89 1022.43 1022.97 1023.32 1023.49 1023.73 1023.97 1024.17 1024.30 1024.43 1024.47 1024.18 1023.79 1023.69 1023.61 1023.61 1023.79 1023.65 1023.83 1023.62 1023.17 1023.23 1023.13 1022.47 1021.43 1020.27 1019.63 1018.88 1018.15 1017.26 1016.38 1015.35 1014.85 1014.44 1014.25 1014.32 1014.58 1014.78 1014.77 1014.50 1014.25
1020.48 1021.24 1021.81 1022.30 1022.72 1023.14 1023.52 1023.76 1024.01 1024.22 1024.39 1024.43 1024.63 1024.60 1024.47 1024.48 1024.21 1024.03 1024.00 1024.27 1024.35 1024.40 1024.09 1023.81 1023.75 1023.51 1022.87 1021.92 1021.34 1020.72 1020.03 1019.40 1018.90 1018.20 1017.57 1016.92 1016.30 1015.94 1015.76 1015.66 1015.55 1015.53 1015.32 1015.23
1021.00 1021.71 1022.28 1022.71 1022.93 1023.10 1023.28 1023.62 1023.86 1024.26 1024.43 1024.37 1024.56 1024.78 1024.84 1024.73 1024.75 1024.73 1024.93 1024.88 1024.87 1024.76 1024.51 1024.22 1024.04 1023.81 1023.37 1022.79 1022.27 1021.74 1021.14 1020.54 1020.27 1019.69 1019.13 1018.49 1017.95 1017.58 1017.10 1016.86 1016.76 1016.58 1016.42 1016.07
1021.59 1022.08 1022.41 1022.62 1022.71 1023.19 1023.58 1023.93 1023.89 1024.15 1024.51 1024.69 1024.80 1024.89 1025.06 1025.15 1025.40 1025.45 1025.37 1025.25 1025.14 1025.00 1024.78 1024.53 1024.33 1024.11 1023.84 1023.52 1023.03 1022.53 1022.10 1021.59 1021.28 1020.88 1020.35 1019.77 1019.33 1018.90 1018.53 1018.24 1018.00 1017.65 1017.26 1016.91
1021.57 1021.89 1022.64 1023.12 1023.68 1024.01 1024.37 1024.48 1024.67 1024.81 1025.10 1025.10 1025.30 1025.35 1025.37 1025.52 1025.62 1025.69 1025.64 1025.55 1025.41 1025.25 1025.06 1024.89 1024.71 1024.48 1024.21 1023.95 1023.58 1023.21 1022.79 1022.40 1022.09 1021.67 1021.32 1020.90 1020.55 1020.01 1019.65 1019.29 1018.82 1018.37 1017.93 1017.40
1022.45 1022.57 1023.08 1023.84 1024.45 1024.85 1025.23 1025.29 1025.36 1025.54 1025.53 1025.92 1025.98 1025.86 1025.63 1025.70 1025.76 1025.85 1025.93 1025.88 1025.73 1025.52 1025.41 1025.28 1025.11 1024.86 1024.64 1024.39 1024.07 1023.76 1023.46 1023.14 1022.88 1022.41 1022.13 1021.85 1021.44 1021.06 1020.59 1020.01 1019.41 1018.76 1018.16 1017.51
Wind_Speed
13 15 3 12 9 10 13 10 11 10 14 12 8 5 1 3 8 5 7 12 10 11 13 13 11 11 12 9 8 5 7 8 5 5 4 3 3 1 2 1 4 7 6 6
3 10 15 12 15 13 15 13 13 15 14 11 7 9 9 6 4 2 7 6 6 5 9 12 12 12 11 9 8 8 8 3 1 3 2 5 5 4 4 6 7 5 4 5
2 6 7 6 9 16 15 15 11 11 10 9 6 2 3 4 5 2 5 6 4 4 6 7 10 10 10 10 6 7 5 4 3 2 5 2 4 5 6 6 5 4 4 4
1 1 1 9 1 6 6 9 11 12 10 8 10 11 6 5 6 5 2 4 4 3 5 6 7 8 9 10 8 7 5 2 5 2 1 4 5 6 5 5 4 4 4 5
2 4 7 11 4 1 1 5 12 10 11 10 11 6 7 8 8 7 7 3 3 4 4 5 6 6 9 6 6 6 7 5 4 7 5 5 5 4 4 4 5 4 4 1
3 2 4 0 5 3 1 3 9 9 8 8 5 3 5 11 10 4 5 5 4 3 3 4 5 7 7 9 9 8 10 8 8 7 7 7 5 4 3 4 5 4 2 5
3 2 6 2 4 1 2 3 6 6 7 6 4 5 3 3 5 10 10 7 7 10 13 12 14 12 11 11 11 10 9 5 6 7 5 5 5 5 4 6 5 3 3 3
2 2 7 4 5 2 4 3 6 5 6 6 4 5 8 9 5 6 9 8 17 17 15 15 13 13 14 12 11 5 7 7 4 5 4 5 5 6 6 6 6 6 3 3
8 4 4 5 3 3 1 2 4 5 6 6 6 7 9 8 6 8 11 14 14 14 15 13 13 13 12 7 3 2 3 5 6 6 5 6 3 6 6 7 5 3 3 3
2 4 6 7 3 3 2 3 6 8 7 6 8 10 9 7 9 12 13 13 12 14 13 11 10 9 7 2 2 3 5 6 5 5 6 4 4 5 3 3 4 3 2 2
6 8 7 3 10 12 9 7 8 10 12 12 8 8 11 15 15 13 14 13 11 10 8 7 5 3 2 4 4 4 5 6 5 3 5 6 6 4 3 2 3 4 3 3
3 7 4 8 11 8 9 11 10 9 13 14 14 14 16 13 13 11 10 8 7 6 5 4 5 6 4 4 4 4 5 4 4 3 3 4 6 4 6 9 8 10 11 6
4 6 4 12 13 14 13 12 13 14 15 13 14 12 13 11 10 9 7 6 4 4 4 2 4 3 4 4 4 5 5 5 2 4 5 4 2 3 7 5 11 12 11 11
6 5 8 8 9 13 14 14 14 14 12 11 11 10 9 8 6 5 3 2 1 4 4 4 4 5 5 6 7 6 7 8 6 6 5 2 2 2 5 8 10 7 9 13
8 11 13 12 13 13 11 11 12 11 9 10 8 7 6 6 5 4 5 5 4 5 6 5 6 8 8 8 9 7 6 6 5 3 2 4 4 5 7 7 8 8 7 6
9 10 11 12 12 11 11 10 11 9 8 11 10 10 10 10 8 6 7 10 5 5 8 7 8 10 10 10 11 9 8 10 9 7 7 7 6 6 6 8 8 7 7 8
10 9 11 11 10 9 10 12 12 10 9 10 8 8 8 7 6 9 8 7 5 7 8 7 8 10 8 10 11 8 8 8 7 5 6 6 7 7 7 8 8 8 8 7
9 11 12 11 9 11 11 11 9 9 7 8 6 6 7 8 7 7 8 8 9 9 6 5 10 9 9 11 10 8 9 10 9 8 6 7 7 7 8 7 8 8 8 7
14 13 13 12 11 10 9 7 6 7 7 7 7 8 7 8 8 9 9 10 9 6 9 10 14 12 11 11 10 8 10 11 12 11 10 10 9 8 6 6 8 9 8 7
14 14 14 13 11 9 8 5 3 9 9 8 7 7 5 4 4 3 4 6 5 6 10 12 13 13 14 14 13 11 12 12 12 13 12 11 9 6 3 5 8 10 8 7
12 10 10 11 10 8 8 7 7 7 6 4 4 3 4 5 2 3 6 6 11 13 13 14 12 12 11 15 14 12 13 12 12 11 10 11 7 2 2 2 6 8 5 4
9 9 9 9 8 8 6 6 5 4 4 3 4 3 5 7 7 7 5 8 8 14 11 9 9 15 14 20 10 12 13 13 12 11 9 8 7 4 5 6 6 7 6 6
8 8 8 7 6 7 6 4 4 5 3 3 4 6 7 6 6 7 7 10 8 11 9 7 10 15 19 10 10 11 12 11 11 10 10 10 9 8 7 7 7 7 7 7
9 7 7 6 4 3 5 6 3 5 1 3 4 3 6 5 5 6 7 8 9 10 8 9 9 12 15 9 10 10 10 9 10 10 10 12 9 9 9 9 8 8 8 9
8 7 6 5 4 5 5 5 3 6 6 6 7 7 7 5 5 6 6 6 10 8 8 11 12 9 8 9 9 9 9 9 9 9 10 9 9 9 9 9 9 9 9 9
6 6 6 8 6 5 5 5 4 5 5 5 5 5 4 4 4 5 6 8 7 8 7 8 8 8 7 9 9 9 9 8 9 9 10 9 10 9 9 10 9 9 9 9
6 5 6 6 5 5 5 4 4 5 4 4 5 6 5 4 5 5 7 7 7 7 7 7 7 8 7 8 8 8 8 8 10 8 8 9 9 9 10 10 9 9 9 9
Wind_Direction
274 268 266 294 285 236 239 235 233 252 260 270 338 5 148 95 173 247 271 200 210 183 174 174 179 185 192 173 184 162 225 218 195 159 149 167 218 288 300 304 270 258 273 277
306 294 288 271 278 274 275 272 253 268 269 278 42 28 22 3 308 244 284 285 229 194 174 175 184 192 187 179 167 192 215 223 231 82 72 49 12 280 267 247 240 255 280 287
237 26 343 318 242 253 265 266 262 261 271 292 306 140 16 325 313 211 294 300 285 212 197 191 193 184 180 180 164 184 173 194 205 92 47 282 252 272 267 259 255 267 272 283
101 314 276 246 334 323 288 290 281 288 303 318 33 52 9 311 307 333 157 320 297 245 205 198 186 177 174 161 182 156 168 141 46 252 289 343 308 283 295 303 294 299 271 261
147 219 289 313 312 346 325 311 28 18 19 31 50 20 43 34 42 20 23 347 277 260 192 176 194 160 138 153 149 146 85 43 357 23 334 298 290 312 301 294 293 285 284 303
162 236 227 194 68 8 353 231 47 26 25 2 17 9 39 25 9 350 313 315 304 266 193 180 142 125 127 110 100 71 51 36 15 305 307 290 302 304 324 311 286 266 339 46
157 243 297 339 113 327 229 64 46 360 353 350 341 21 9 39 13 345 340 344 357 49 45 58 61 71 90 79 67 50 47 314 279 271 314 326 313 324 311 290 278 283 187 149
153 142 269 136 119 143 64 344 9 349 358 350 341 325 311 317 331 17 339 19 65 67 57 48 60 73 66 61 55 27 265 265 319 324 309 315 326 292 293 292 275 255 199 182
174 206 152 197 28 39 18 328 333 326 320 336 335 329 338 339 14 43 47 58 81 82 74 65 63 67 75 66 221 275 324 308 300 305 318 292 322 312 297 291 272 264 171 174
51 236 210 209 228 327 40 1 10 359 343 355 9 351 333 352 64 57 63 82 79 82 77 72 75 80 81 167 225 264 262 265 278 276 276 289 276 258 278 313 326 321 256 222
219 257 285 63 48 55 31 2 24 16 38 36 8 6 35 61 58 77 75 74 77 84 89 99 121 131 186 218 241 274 287 273 267 269 272 268 270 245 219 246 274 288 284 302
214 76 5 53 63 36 55 51 39 31 63 45 42 67 72 68 70 79 86 91 100 121 136 147 199 221 237 263 258 248 265 264 247 248 262 276 276 278 232 229 244 268 255 220
25 20 36 81 73 65 69 60 60 61 59 67 62 68 74 88 92 98 111 123 140 166 203 271 350 328 286 271 267 255 255 261 262 263 257 257 296 291 299 284 247 249 248 246
35 327 111 49 95 86 83 81 78 77 76 80 84 88 96 102 122 128 137 151 4 356 348 315 285 277 265 262 258 228 232 245 248 252 255 256 291 304 308 300 293 284 242 238
81 68 88 98 91 87 94 99 94 95 99 96 100 112 113 104 85 54 32 13 8 325 304 306 330 321 314 300 290 267 246 247 245 234 216 230 229 254 253 261 271 275 274 249
96 95 92 95 101 110 112 113 103 101 97 65 50 34 23 19 15 355 14 36 12 337 328 322 297 299 304 304 295 281 268 246 241 242 229 232 234 245 251 254 266 272 265 265
122 125 116 118 123 128 104 79 75 77 61 57 45 31 27 10 15 23 3 3 5 318 299 287 283 308 317 306 302 291 281 272 266 242 229 231 244 242 253 260 262 264 267 259
112 109 126 139 130 93 88 76 62 64 55 50 56 52 44 37 21 359 353 343 337 321 316 347 14 347 329 320 313 306 301 298 291 270 253 251 249 251 260 260 267 265 262 270
110 102 91 91 91 82 81 76 73 85 66 54 56 48 43 30 14 1 351 341 328 4 6 1 351 333 329 328 325 320 310 295 287 280 263 255 247 242 250 269 278 272 262 263
102 92 87 80 69 81 85 59 91 80 59 51 50 43 27 14 6 341 314 332 15 31 353 354 343 332 325 326 333 319 311 303 301 306 286 253 233 228 236 277 293 275 258 262
94 97 93 95 92 81 81 82 83 71 64 52 46 32 342 315 327 301 358 346 19 3 4 346 341 7 346 339 322 307 302 298 296 293 289 293 275 223 204 273 337 344 332 305
109 108 113 112 106 101 92 88 80 73 65 46 46 21 346 7 356 4 351 32 356 18 349 345 8 1 339 329 334 351 353 357 350 340 328 329 329 16 31 16 3 353 347 345
114 116 123 124 123 116 109 101 103 75 44 27 65 32 13 355 356 346 352 11 9 1 344 2 1 1 340 344 352 352 350 3 2 353 1 358 5 10 8 7 6 359 355 352
116 121 125 128 140 138 96 63 71 119 71 18 74 63 17 347 353 8 4 356 4 347 346 352 360 360 347 350 350 352 348 3 3 357 355 357 3 4 0 5 2 0 353 342
133 137 144 174 142 88 66 40 22 44 28 11 20 13 5 15 16 357 349 350 349 352 344 351 353 355 355 350 346 354 351 356 4 359 351 356 359 354 357 360 355 348 343 340
150 109 85 66 66 58 41 31 13 22 7 1 5 347 6 18 11 354 350 346 347 349 349 349 350 350 356 351 348 352 352 358 1 356 354 357 353 348 356 350 343 340 332 325
72 82 123 104 69 52 37 22 15 357 358 40 348 320 344 4 0 356 359 344 345 350 352 349 347 353 357 351 352 356 353 360 354 352 360 357 346 354 342 338 331 328 329 324